FW4663 Weather Reports


Display with metric or nautical units.
time (UTC)temp
F
wind
direction
speed
MPH
gust
MPH
rain 1hr
in
rain 24hr
in
rain mn
in
humidity
%
barometer
mb
20260505021555 65 149 0.0 3.0 0.00 0.00 0.00 72 1014.9
20260505020058 65 143 1.0 3.0 0.00 0.00 0.00 71 1014.7
20260505014548 66 159 2.0 3.0 0.00 0.00 0.00 69 1014.5
20260505013048 67 146 1.0 5.0 0.00 0.00 0.00 67 1014.3
20260505011547 68 145 2.0 4.0 0.00 0.00 0.00 65 1014.2
20260505010105 69 147 2.0 7.0 0.00 0.00 0.00 63 1014.3
20260505004546 70 147 4.0 7.0 0.00 0.00 0.00 62 1014.3
20260505003049 70 167 4.0 9.0 0.00 0.00 0.00 60 1014.7
20260505001545 72 138 4.0 7.0 0.00 0.00 0.00 57 1014.6
20260505000051 72 145 4.0 8.0 0.00 0.00 0.00 56 1014.8
20260504234542 73 139 8.0 12.0 0.00 0.00 0.00 54 1014.7
20260504233049 74 156 5.0 10.0 0.00 0.00 0.00 54 1014.8
20260504231539 74 194 3.0 10.0 0.00 0.00 0.00 53 1015.0
20260504230051 75 153 4.0 9.0 0.00 0.00 0.00 48 1015.1
20260504224556 76 178 3.0 10.0 0.00 0.00 0.00 48 1015.2
20260504223036 76 287 4.0 12.0 0.00 0.00 0.00 46 1015.3
20260504221535 77 138 5.0 15.0 0.00 0.00 0.00 45 1015.3
20260504220034 77 132 4.0 10.0 0.00 0.00 0.00 44 1015.7
20260504214541 77 150 4.0 12.0 0.00 0.00 0.00 44 1015.7
20260504213033 77 160 3.0 11.0 0.00 0.00 0.00 42 1015.7
20260504211531 78 202 3.0 9.0 0.00 0.00 0.00 40 1015.8
20260504210029 78 199 5.0 9.0 0.00 0.00 0.00 40 1015.8
20260504204526 79 196 4.0 10.0 0.00 0.00 0.00 40 1016.2
20260504203025 78 154 2.0 8.0 0.00 0.00 0.00 41 1016.2
20260504201524 78 244 2.0 15.0 0.00 0.00 0.00 39 1016.5
20260504200022 78 171 5.0 11.0 0.00 0.00 0.00 40 1016.8
20260504194518 78 244 4.0 10.0 0.00 0.00 0.00 40 1017.1
20260504193017 77 194 5.0 11.0 0.00 0.00 0.00 41 1017.3
20260504191515 77 138 7.0 12.0 0.00 0.00 0.00 41 1017.3
20260504190015 78 159 5.0 13.0 0.00 0.00 0.00 40 1017.4
20260504184522 77 146 5.0 13.0 0.00 0.00 0.00 43 1017.5
20260504183017 78 185 6.0 12.0 0.00 0.00 0.00 41 1017.6
20260504181509 77 275 6.0 13.0 0.00 0.00 0.00 43 1017.9
20260504180006 76 185 6.0 10.0 0.00 0.00 0.00 43 1018.0
20260504174506 76 221 2.0 11.0 0.00 0.00 0.00 42 1017.9
20260504173005 77 186 8.0 16.0 0.00 0.00 0.00 42 1018.2
20260504171503 76 190 7.0 10.0 0.00 0.00 0.00 44 1018.1
20260504081502 54 279 0.0 0.0 0.00 0.00 0.00 91 1018.2
20260504044537 59 249 0.0 2.0 0.00 0.00 0.00 79 1020.1
20260504043046 59 249 0.0 2.0 0.00 0.00 0.00 77 1020.1
20260504041536 60 249 0.0 0.0 0.00 0.00 0.00 75 1020.1
20260504040036 61 249 0.0 0.0 0.00 0.00 0.00 73 1020.2
20260504034542 62 249 0.0 0.0 0.00 0.00 0.00 74 1020.4
20260504033033 62 249 0.0 0.0 0.00 0.00 0.00 72 1020.3
20260504031537 63 249 0.0 3.0 0.00 0.00 0.00 71 1020.4
20260504030039 63 186 0.0 2.0 0.00 0.00 0.00 68 1020.5
20260504024535 64 159 1.0 3.0 0.00 0.00 0.00 67 1020.4
20260504023031 64 264 1.0 3.0 0.00 0.00 0.00 68 1020.3